Weather History for LIRA - March, 2014

Change the Weather History Date:

Saturday, March 15, 2014

  Actual Average Record
Temperature  
Mean Temperature 54 °F -  
Max Temperature 64 °F 62 °F 69 °F (1999)
Min Temperature 45 °F 44 °F 35 °F (2003)
Degree Days  
Heating Degree Days 10    
Growing Degree Days 4 (Base 50)    
Moisture  
Dew Point 47 °F    
Average Humidity 78    
Maximum Humidity 95    
Minimum Humidity 33    
Precipitation  
Precipitation 0.00 in 0.09 in - ()
Sea Level Pressure  
Sea Level Pressure 30.08 in    
Wind  
Wind Speed 2 mph ()    
Max Wind Speed 9 mph    
Max Gust Speed -    
Visibility 5.5 miles    
Events      
Averages and records for this station are not official NWS values.
T = Trace of Precipitation, MM = Missing Value Source: Averaged Metar Reports

Daily Weather History Graph

Daily Weather History Graph

Search for Another Location

Airport or City:

Trip Planner

Search our weather history database for the weather conditions in past years. The results will help you decide how hot, cold, wet, or windy it might be!

Date:

Astronomy

Mar. 15, 2014 Rise Set
Actual Time 6:21 AM CET 6:15 PM CET
Civil Twilight 5:54 AM CET 6:43 PM CET
Nautical Twilight 5:21 AM CET 7:16 PM CET
Astronomical Twilight 4:49 AM CET 7:48 PM CET
Moon 5:18 PM CET (3/15) 5:25 AM CET (3/15)
Length of Visible Light 12h 49m
Length of Day
11h 54m
Waxing Gibbous, 98% of the Moon is Illuminated
Mar 15
Waxing Gibbous
Mar 16
Full
Mar 24
Last Quarter
Mar 30
New
Apr 7
First Quarter

Hourly Weather History & Observations

Time (CET) Temp. Dew Point Humidity Pressure Visibility Wind Dir Wind Speed Gust Speed Precip Events Conditions
12:15 AM 51.8 °F 46.4 °F 82% 30.21 in - Calm Calm - N/A   Clear
12:45 AM 51.8 °F 46.4 °F 82% 30.18 in - Calm Calm - N/A   Clear
1:00 AM 51 °F 46 °F 76% 30.21 in 6 mi Calm Calm - -   Clear
1:15 AM 50.0 °F 46.4 °F 87% 30.18 in - NE 2.3 mph - N/A   Clear
1:45 AM 50.0 °F 46.4 °F 87% 30.18 in - NE 2.3 mph - N/A   Clear
2:15 AM 50.0 °F 46.4 °F 87% 30.18 in - Calm Calm - N/A   Clear
2:45 AM 48.2 °F 46.4 °F 93% 30.15 in 5.0 mi Calm Calm - N/A   Scattered Clouds
3:15 AM 48.2 °F 46.4 °F 93% 30.15 in 5.0 mi Calm Calm - N/A   Scattered Clouds
3:45 AM 48.2 °F 46.4 °F 93% 30.15 in 5.0 mi Calm Calm - N/A   Scattered Clouds
4:00 AM 48 °F 47 °F 95% 30.17 in 5 mi Calm Calm - -   Mist
4:15 AM 48.2 °F 46.4 °F 93% 30.15 in 6.2 mi Calm Calm - N/A   Scattered Clouds
4:45 AM 48.2 °F 46.4 °F 93% 30.15 in 5.0 mi NE 2.3 mph - N/A   Scattered Clouds
5:15 AM 48.2 °F 46.4 °F 93% 30.15 in 5.0 mi NNE 2.3 mph - N/A   Partly Cloudy
5:45 AM 48.2 °F 46.4 °F 93% 30.12 in 5.0 mi Calm Calm - N/A   Partly Cloudy
6:15 AM 46.4 °F 44.6 °F 93% 30.12 in 5.0 mi Calm Calm - N/A   Partly Cloudy
6:45 AM 46.4 °F 44.6 °F 93% 30.12 in 5.0 mi Calm Calm - N/A   Unknown
7:00 AM 46 °F 44 °F 92% 30.14 in 5 mi Calm Calm - -   Mist
7:15 AM 46.4 °F 44.6 °F 93% 30.12 in 5.0 mi Calm Calm - N/A   Unknown
7:45 AM 46.4 °F 44.6 °F 93% 30.12 in 5.0 mi Calm Calm - N/A   Unknown
8:15 AM 50.0 °F 44.6 °F 82% 30.12 in 5.0 mi Calm Calm - N/A   Unknown
8:45 AM 51.8 °F 46.4 °F 82% 30.12 in 5.0 mi NW 2.3 mph - N/A   Unknown
9:15 AM 53.6 °F 46.4 °F 77% 30.12 in 5.0 mi NW 4.6 mph - N/A   Unknown
9:45 AM 55.4 °F 46.4 °F 72% 30.12 in 5.0 mi WNW 2.3 mph - N/A   Unknown
10:00 AM 55 °F 47 °F 66% 30.15 in 5 mi WNW 2.3 mph - -   Mist
10:15 AM 59.0 °F 48.2 °F 67% 30.12 in 5.0 mi West 1.2 mph - N/A   Unknown
10:45 AM 60.8 °F 48.2 °F 63% 30.12 in 5.0 mi NW 3.5 mph - N/A   Partly Cloudy
11:15 AM 60.8 °F 48.2 °F 63% 30.12 in 5.0 mi SW 2.3 mph - N/A   Partly Cloudy
11:45 AM 62.6 °F 44.6 °F 52% 30.09 in 5.6 mi WNW 3.5 mph - N/A   Partly Cloudy
12:15 PM 62.6 °F 42.8 °F 48% 30.09 in 6.2 mi WNW 3.5 mph - N/A   Partly Cloudy
12:45 PM 64.4 °F 42.8 °F 45% 30.09 in 6.2 mi WNW 5.8 mph - N/A   Partly Cloudy
1:00 PM 64 °F 42 °F 33% 30.11 in 6 mi WNW 5.8 mph - -   Scattered Clouds
1:15 PM 64.4 °F 42.8 °F 45% 30.09 in 6.2 mi West 5.8 mph - N/A   Partly Cloudy
1:45 PM 64.4 °F 48.2 °F 56% 30.06 in 6.2 mi West 5.8 mph - N/A   Partly Cloudy
2:15 PM 62.6 °F 48.2 °F 59% 30.04 in 6.2 mi West 6.9 mph - N/A   Partly Cloudy
2:45 PM 62.6 °F 48.2 °F 59% 30.04 in 6.2 mi West 6.9 mph - N/A   Partly Cloudy
3:15 PM 62.6 °F 46.4 °F 55% 30.01 in - WSW 6.9 mph - N/A   Clear
3:45 PM 62.6 °F 48.2 °F 59% 30.01 in - WSW 9.2 mph - N/A   Clear
4:00 PM 63 °F 47 °F 46% 30.03 in 9 mi WSW 9.2 mph - -   Clear
4:15 PM 60.8 °F 48.2 °F 63% 30.01 in - West 6.9 mph - N/A   Clear
4:45 PM 59.0 °F 46.4 °F 63% 30.01 in - West 4.6 mph - N/A   Clear
5:15 PM 59.0 °F 48.2 °F 67% 30.01 in - SW 4.6 mph - N/A   Clear
5:45 PM 57.2 °F 48.2 °F 72% 30.01 in - WSW 3.5 mph - N/A   Clear
6:15 PM 55.4 °F 50.0 °F 82% 29.98 in - SSW 3.5 mph - N/A   Clear
6:45 PM 55.4 °F 50.0 °F 82% 30.01 in - SSW 2.3 mph - N/A   Clear
7:00 PM 55 °F 51 °F 80% 30.01 in 6 mi SSW 2.3 mph - -   Clear
7:15 PM 53.6 °F 50.0 °F 88% 30.01 in - SSW 2.3 mph - N/A   Clear
7:45 PM 53.6 °F 50.0 °F 88% 30.01 in - South 2.3 mph - N/A   Clear
8:15 PM 53.6 °F 50.0 °F 88% 30.01 in - South 3.5 mph - N/A   Clear
8:45 PM 53.6 °F 50.0 °F 88% 30.01 in - South 3.5 mph - N/A   Clear
9:15 PM 53.6 °F 50.0 °F 88% 30.01 in - SE 2.3 mph - N/A   Clear
9:45 PM 51.8 °F 48.2 °F 88% 30.01 in - Calm Calm - N/A   Clear
10:00 PM 51 °F 49 °F 90% 30.03 in 6 mi Calm Calm - -   Clear
10:15 PM 50.0 °F 48.2 °F 94% 30.01 in - Calm Calm - N/A   Clear
10:45 PM 50.0 °F 48.2 °F 94% 30.01 in - SE 1.2 mph - N/A   Clear
11:15 PM 50.0 °F 48.2 °F 94% 30.01 in - SSE 2.3 mph - N/A   Clear
11:45 PM 48.2 °F 46.4 °F 93% 29.98 in - South 2.3 mph - N/A   Clear